[[{"header":{"parameterUnit":"m.s-1","parameterCategory":1,"la1":30.2991,"la2":30.254,"lo1":-89.0895,"lo2":-89.0444,"dy":0.0017,"dx":0.0017,"nx":28,"ny":28,"refTime":"2024-10-09T09:00:00:Z","depth":0,"parameterNumber":2,"parameterNumberName":"U-component_of_WINDS"},"data":[0,0,0,0,0,0,0,0,0,0,0,0,0,0,0,0,0,0,0,0,0,0,0,0,0,0,0,0,0,0,0,0,0,0,0,0,0,0,0,0,0,0,0,0,0,0,0,0,0,0,0,0,0,0,0,0,0,0,-0.3356,-0.3356,0,-0.3406,-0.3406,-0.3407,-0.34,-0.3399,-0.3398,-0.3397,-0.345,-0.3452,-0.3455,0,0,0,0,0,0,0,0,0,0,0,0,0,-0.3255,-0.3257,-0.3356,-0.3356,-0.3357,-0.3406,-0.3406,-0.3407,-0.34,-0.3399,-0.3398,-0.3397,-0.345,-0.3452,-0.3455,0,0,0,0,0,0,0,0,0,0,0,0,0,-0.3301,-0.3258,-0.3355,-0.3359,-0.336,-0.3406,-0.3406,-0.3407,-0.34,-0.3399,-0.3398,-0.3396,-0.3449,-0.3452,-0.3455,-0.3501,0,0,-0.3465,-0.3467,0,0,0,0,0,0,0,0,-0.3299,-0.3305,-0.3358,-0.3359,-0.336,-0.3395,-0.339,-0.3439,-0.34,-0.3385,-0.3397,-0.3396,-0.3433,-0.3438,-0.345,-0.3503,-0.3506,-0.3466,-0.3468,-0.3469,-0.347,0,0,0,0,0,0,0,-0.3296,-0.3303,-0.3375,-0.3359,-0.336,-0.3359,-0.3364,-0.34,-0.3416,-0.3386,-0.3386,-0.3392,-0.3433,-0.3447,-0.3451,-0.3506,-0.3466,-0.3468,-0.347,-0.3472,-0.3601,-0.3602,0,0,0,0,0,0,-0.3291,-0.33,-0.3374,-0.3377,-0.3326,-0.3362,-0.3367,-0.3385,-0.3415,-0.3418,-0.3393,-0.3391,-0.3442,-0.3447,-0.3453,-0.3509,-0.3469,-0.3472,-0.3474,-0.3599,-0.3601,-0.3602,0,0,0,0,0,0,-0.3289,-0.3298,-0.3372,-0.3339,-0.3348,-0.3365,-0.3385,-0.3387,-0.34,-0.342,-0.3423,-0.3403,-0.3441,-0.3448,-0.3489,-0.3511,-0.3474,-0.3477,-0.3597,-0.36,-0.3602,-0.3621,0,0,0,0,0,0,-0.3286,-0.3297,-0.3314,-0.3339,-0.335,-0.3407,-0.3386,-0.3389,-0.3406,-0.3404,-0.3431,-0.3434,-0.344,-0.3484,-0.3492,-0.3514,-0.3479,-0.3596,-0.3598,-0.3601,-0.3618,-0.3623,-0.3627,0,0,0,0,0,-0.3283,-0.3318,-0.3315,-0.3324,-0.3371,-0.3408,-0.3414,-0.342,-0.3407,-0.3425,-0.3438,-0.3433,-0.3507,-0.3488,-0.3498,-0.3521,-0.3594,-0.3598,-0.3601,-0.3616,-0.3622,-0.3627,0,0,0,0,0,0,-0.3296,-0.3321,-0.3318,-0.3363,-0.3383,-0.3407,-0.3429,-0.3427,-0.3452,-0.3449,-0.3456,-0.3463,-0.3504,-0.3516,-0.3496,-0.3567,-0.3549,-0.3554,-0.3557,-0.3563,-0.3568,-0.3564,-0.3482,0,0,0,0,0,-0.3304,-0.3331,-0.3352,-0.3389,-0.3399,-0.3412,-0.3428,-0.3431,-0.3453,-0.3462,-0.3478,-0.35,-0.3528,-0.3546,-0.3573,-0.362,-0.3626,-0.364,-0.3645,-0.3649,-0.3653,-0.368,-0.3686,-0.3613,-0.3613,-0.3613,0,0,-0.3321,-0.3338,-0.3354,-0.3392,-0.3408,-0.3436,-0.342,-0.345,-0.3472,-0.3467,-0.3506,-0.3519,-0.3544,-0.3588,-0.3608,-0.3599,-0.3675,-0.3653,-0.3656,-0.3658,-0.3684,-0.3691,-0.3697,-0.3615,-0.3615,-0.3615,0,0,-0.3366,-0.3381,-0.3414,-0.3431,-0.3455,-0.3464,-0.3472,-0.3496,-0.3504,-0.3543,-0.354,-0.3566,-0.3614,-0.3632,-0.3647,-0.3699,-0.3696,-0.3708,-0.3733,-0.3758,-0.3764,-0.3769,-0.3788,-0.3795,-0.3712,-0.3712,-0.3713,0,-0.3384,-0.3426,-0.3431,-0.3462,-0.3479,-0.3475,-0.3509,-0.3525,-0.3557,-0.3569,-0.3559,-0.3619,-0.3636,-0.3684,-0.3697,-0.3709,-0.3719,-0.3705,-0.3762,-0.3768,-0.3773,-0.3791,-0.3798,-0.3714,-0.3714,-0.3714,-0.3713,0,-0.3447,-0.3477,-0.35,-0.3531,-0.355,-0.3582,-0.3593,-0.3612,-0.3614,-0.3623,-0.3664,-0.3684,-0.3714,-0.3726,-0.3728,-0.3775,-0.3769,-0.3761,-0.3743,-0.3781,-0.3798,-0.3805,-0.3716,-0.3715,-0.3715,-0.3714,0,0,-0.3502,-0.3536,-0.3544,-0.3558,-0.3585,-0.3609,-0.3641,-0.367,-0.3687,-0.3709,-0.3737,-0.3778,-0.377,-0.3788,-0.3791,-0.3814,-0.3854,-0.3803,-0.3803,-0.3812,-0.3908,-0.3915,-0.3923,-0.3852,-0.3854,-0.3855,-0.3906,0,-0.3551,-0.3607,-0.3613,-0.3664,-0.3691,-0.3688,-0.3716,-0.3736,-0.3746,-0.3772,-0.3783,-0.3812,-0.3799,-0.381,-0.3832,-0.3845,-0.3874,-0.3841,-0.3879,-0.388,-0.3873,-0.3932,-0.3939,-0.3987,-0.3913,-0.3914,-0.3915,0,-0.3615,-0.3638,-0.3692,-0.3715,-0.3727,-0.3752,-0.378,-0.3804,-0.3827,-0.3833,-0.3852,-0.3853,-0.3887,-0.3867,-0.3914,-0.3892,-0.3908,-0.3916,-0.3918,-0.3923,-0.39,-0.3939,-0.4002,-0.401,-0.3926,-0.3925,-0.3924,0,-0.365,-0.3696,-0.3734,-0.3746,-0.3774,-0.3792,-0.3804,-0.3826,-0.3843,-0.3868,-0.388,-0.3908,-0.3924,-0.3946,-0.3955,-0.3939,-0.4002,-0.3983,-0.4008,-0.4008,-0.4022,-0.4021,-0.409,-0.4031,-0.4031,-0.4031,-0.4031,0,-0.3704,-0.3737,-0.375,-0.3773,-0.381,-0.3817,-0.3854,-0.3865,-0.3885,-0.3911,-0.391,-0.3935,-0.3944,-0.3971,-0.3978,-0.4016,-0.4023,-0.4029,-0.4031,-0.403,-0.4029,-0.4041,-0.4038,-0.4033,-0.4032,-0.4032,-0.4032,0,-0.375,-0.376,-0.3801,-0.3824,-0.3831,-0.3857,-0.3878,-0.3901,-0.391,-0.3943,-0.3951,-0.3967,-0.3998,-0.4009,-0.4047,-0.4051,-0.4096,-0.4095,-0.4088,-0.4089,-0.4114,-0.4112,-0.4193,-0.4205,-0.4138,-0.4138,-0.4139,0,-0.3783,-0.3809,-0.3835,-0.3852,-0.3865,-0.3893,-0.3911,-0.3918,-0.3937,-0.3965,-0.3985,-0.4015,-0.404,-0.409,-0.4105,-0.4135,-0.4134,-0.4161,-0.4139,-0.4137,-0.4135,-0.4134,-0.4137,-0.4165,-0.4166,-0.4166,-0.4167,0,-0.3843,-0.3846,-0.3872,-0.39,-0.3921,-0.3943,-0.3965,-0.3979,-0.399,-0.4011,-0.4043,-0.4062,-0.4101,-0.4131,-0.4161,-0.4175,-0.4173,-0.4173,-0.4181,-0.418,-0.4176,-0.4179,-0.41,-0.4172,-0.4171,-0.4171,-0.4171,-0.417,-0.3884,-0.3906,-0.3928,-0.3957,-0.3974,-0.3994,-0.4017,-0.4029,-0.4056,-0.4087,-0.409,-0.4124,-0.4147,-0.4187,-0.4202,-0.4229,-0.4222,-0.4232,-0.4235,-0.4238,-0.424,-0.4171,-0.4234,-0.4234,-0.4234,-0.4234,-0.4234,0,-0.3943,-0.3957,-0.3983,-0.4014,-0.4036,-0.4032,-0.4056,-0.4075,-0.4105,-0.4126,-0.4151,-0.4187,-0.4217,-0.4234,-0.4265,-0.4283,-0.4283,-0.4291,-0.429,-0.4293,-0.4245,-0.4235,-0.429,-0.429,-0.429,-0.429,-0.429,-0.429,-0.3977,-0.4015,-0.4021,-0.4068,-0.4082,-0.4115,-0.4129,-0.4148,-0.4165,-0.4205,-0.423,-0.4241,-0.4261,-0.4292,-0.432,-0.4324,-0.4336,-0.4344,-0.4348,-0.4302,-0.4297,-0.4291,-0.4282,-0.4346,-0.4346,-0.4394,-0.4395,-0.4395]},{"header":{"parameterUnit":"m.s-1","parameterCategory":1,"la1":30.2991,"la2":30.254,"lo1":-89.0895,"lo2":-89.0444,"dy":0.0017,"dx":0.0017,"nx":28,"ny":28,"refTime":"2024-10-09T09:00:00:Z","depth":0,"parameterNumber":3,"parameterNumberName":"V-component_of_WINDS"},"data":[0,0,0,0,0,0,0,0,0,0,0,0,0,0,0,0,0,0,0,0,0,0,0,0,0,0,0,0,0,0,0,0,0,0,0,0,0,0,0,0,0,0,0,0,0,0,0,0,0,0,0,0,0,0,0,0,0,0,-3.2762,-3.2763,0,-3.2783,-3.2783,-3.2783,-3.2722,-3.2721,-3.2719,-3.2717,-3.2736,-3.2738,-3.274,0,0,0,0,0,0,0,0,0,0,0,0,0,-3.267,-3.2672,-3.2762,-3.2763,-3.2763,-3.2783,-3.2783,-3.2783,-3.2723,-3.2721,-3.2718,-3.2716,-3.2735,-3.2737,-3.274,0,0,0,0,0,0,0,0,0,0,0,0,0,-3.2702,-3.2672,-3.2762,-3.2735,-3.2733,-3.2783,-3.2783,-3.2783,-3.2723,-3.272,-3.2718,-3.2715,-3.2734,-3.2737,-3.2741,-3.2817,0,0,-3.2751,-3.2752,0,0,0,0,0,0,0,0,-3.27,-3.2705,-3.2739,-3.2737,-3.2735,-3.2747,-3.2757,-3.2794,-3.2724,-3.2727,-3.2717,-3.2714,-3.2742,-3.2744,-3.2754,-3.2818,-3.2818,-3.2751,-3.2753,-3.2754,-3.2755,0,0,0,0,0,0,0,-3.2698,-3.2704,-3.277,-3.2739,-3.2737,-3.2721,-3.2723,-3.2764,-3.2749,-3.2726,-3.2722,-3.2725,-3.274,-3.2751,-3.2754,-3.2819,-3.2751,-3.2754,-3.2756,-3.2757,-3.2947,-3.295,0,0,0,0,0,0,-3.27,-3.2703,-3.277,-3.2771,-3.271,-3.2725,-3.2727,-3.2746,-3.2749,-3.2747,-3.2728,-3.2723,-3.2747,-3.275,-3.2754,-3.2845,-3.2754,-3.2758,-3.2759,-3.2944,-3.2948,-3.2951,0,0,0,0,0,0,-3.2698,-3.2706,-3.2769,-3.2736,-3.2743,-3.273,-3.2752,-3.2748,-3.2759,-3.275,-3.2747,-3.2742,-3.2745,-3.275,-3.2802,-3.2844,-3.2759,-3.2762,-3.294,-3.2945,-3.2949,-3.3025,0,0,0,0,0,0,-3.2696,-3.2706,-3.2735,-3.2737,-3.2745,-3.2817,-3.2754,-3.275,-3.2765,-3.2758,-3.2762,-3.276,-3.2743,-3.2797,-3.2805,-3.2847,-3.2765,-3.2936,-3.2942,-3.2948,-3.3019,-3.3032,-3.3043,0,0,0,0,0,-3.2692,-3.2755,-3.2737,-3.2745,-3.2781,-3.2819,-3.2824,-3.2803,-3.2769,-3.2798,-3.2792,-3.276,-3.2839,-3.2803,-3.2812,-3.2855,-3.2934,-3.2941,-3.2947,-3.3014,-3.303,-3.3043,0,0,0,0,0,0,-3.2757,-3.2755,-3.2734,-3.28,-3.281,-3.2809,-3.2845,-3.282,-3.284,-3.2833,-3.2806,-3.2807,-3.2865,-3.2865,-3.2826,-3.293,-3.288,-3.2889,-3.2928,-3.2943,-3.2954,-3.2953,-3.2767,0,0,0,0,0,-3.2779,-3.2812,-3.2807,-3.2865,-3.2871,-3.2858,-3.2874,-3.2857,-3.2867,-3.2871,-3.2869,-3.2879,-3.2906,-3.2924,-3.2948,-3.3019,-3.3019,-3.3053,-3.3065,-3.3075,-3.3083,-3.3122,-3.3137,-3.2973,-3.2973,-3.2973,0,0,-3.2825,-3.2827,-3.2849,-3.2878,-3.2884,-3.2918,-3.2862,-3.2899,-3.2924,-3.2876,-3.2926,-3.2925,-3.2935,-3.2997,-3.3024,-3.2999,-3.3128,-3.3084,-3.3092,-3.3094,-3.313,-3.3146,-3.3159,-3.2978,-3.2977,-3.2976,0,0,-3.2925,-3.293,-3.2979,-3.2987,-3.2998,-3.2989,-3.3001,-3.3004,-3.3002,-3.3052,-3.3017,-3.3045,-3.3092,-3.3101,-3.3111,-3.3217,-3.3188,-3.3225,-3.3288,-3.3326,-3.3339,-3.335,-3.3389,-3.3403,-3.3233,-3.3233,-3.3233,0,-3.298,-3.303,-3.3007,-3.3049,-3.3063,-3.3022,-3.3071,-3.308,-3.3098,-3.3108,-3.308,-3.3139,-3.3142,-3.3207,-3.3233,-3.3242,-3.3255,-3.3225,-3.3339,-3.335,-3.336,-3.3397,-3.3411,-3.3238,-3.3237,-3.3237,-3.3236,0,-3.3097,-3.3133,-3.3171,-3.3191,-3.321,-3.3255,-3.3239,-3.326,-3.3242,-3.3236,-3.3287,-3.329,-3.3315,-3.3329,-3.3311,-3.3391,-3.3375,-3.3343,-3.3293,-3.3381,-3.3414,-3.3428,-3.3244,-3.3243,-3.3241,-3.324,0,0,-3.3238,-3.3247,-3.3261,-3.327,-3.328,-3.3307,-3.335,-3.3375,-3.3394,-3.3408,-3.3444,-3.3486,-3.3457,-3.3469,-3.3451,-3.3485,-3.3569,-3.3449,-3.3448,-3.3472,-3.3659,-3.3684,-3.37,-3.3551,-3.3553,-3.3555,-3.3659,0,-3.3338,-3.3414,-3.3395,-3.347,-3.3503,-3.3465,-3.3503,-3.3513,-3.3509,-3.3535,-3.353,-3.356,-3.3519,-3.3526,-3.3557,-3.3553,-3.3607,-3.3545,-3.3584,-3.3586,-3.3584,-3.3718,-3.3743,-3.3841,-3.3672,-3.3674,-3.3675,0,-3.3464,-3.3485,-3.3563,-3.3569,-3.3582,-3.3617,-3.3639,-3.3665,-3.3676,-3.367,-3.3685,-3.3661,-3.3704,-3.3654,-3.3713,-3.3671,-3.3686,-3.3686,-3.3689,-3.3693,-3.3636,-3.3725,-3.3871,-3.3887,-3.3696,-3.3694,-3.3693,0,-3.3561,-3.3608,-3.3661,-3.367,-3.3678,-3.3703,-3.3707,-3.3715,-3.3732,-3.3751,-3.3762,-3.3786,-3.3799,-3.3818,-3.3801,-3.3766,-3.3864,-3.3811,-3.386,-3.3861,-3.3883,-3.3882,-3.4034,-3.3892,-3.3891,-3.3891,-3.3891,0,-3.3674,-3.3724,-3.3705,-3.3738,-3.3793,-3.3771,-3.3826,-3.3825,-3.3833,-3.3865,-3.3833,-3.3864,-3.384,-3.3869,-3.3856,-3.3908,-3.3914,-3.391,-3.3907,-3.3914,-3.3915,-3.3924,-3.3917,-3.3895,-3.3894,-3.3893,-3.3893,0,-3.3791,-3.378,-3.3836,-3.3839,-3.3841,-3.3882,-3.3884,-3.3915,-3.3908,-3.395,-3.3958,-3.3948,-3.398,-3.3966,-3.3999,-3.3991,-3.4057,-3.4044,-3.4054,-3.4051,-3.4102,-3.4098,-3.4266,-3.4288,-3.413,-3.4132,-3.4133,0,-3.3864,-3.3902,-3.391,-3.393,-3.3937,-3.3969,-3.3987,-3.3967,-3.3986,-3.4002,-3.4031,-3.4061,-3.4084,-3.4137,-3.4132,-3.4158,-3.4146,-3.4203,-3.4149,-3.4156,-3.4148,-3.4146,-3.415,-3.4214,-3.4216,-3.4217,-3.4218,0,-3.3997,-3.399,-3.4017,-3.4043,-3.4065,-3.4084,-3.41,-3.4118,-3.4099,-3.4122,-3.4156,-3.4174,-3.4209,-3.4239,-3.4262,-3.4265,-3.424,-3.4235,-3.4248,-3.4257,-3.4262,-3.4261,-3.4085,-3.4232,-3.423,-3.4229,-3.4229,-3.4228,-3.4095,-3.4127,-3.4138,-3.417,-3.418,-3.4196,-3.4226,-3.4224,-3.4252,-3.428,-3.4266,-3.4305,-3.4315,-3.4344,-3.4351,-3.4381,-3.4359,-3.4377,-3.4382,-3.4387,-3.4395,-3.4256,-3.4385,-3.4385,-3.4385,-3.4384,-3.4384,0,-3.4226,-3.4232,-3.4261,-3.4286,-3.4311,-3.4285,-3.4301,-3.4324,-3.4359,-3.4372,-3.4395,-3.4434,-3.4464,-3.4462,-3.4489,-3.4514,-3.4503,-3.4522,-3.452,-3.4522,-3.4413,-3.4399,-3.453,-3.453,-3.453,-3.453,-3.453,-3.453,-3.4297,-3.4351,-3.4346,-3.4405,-3.441,-3.4449,-3.4461,-3.4476,-3.4486,-3.4532,-3.4557,-3.4555,-3.4562,-3.459,-3.4616,-3.4615,-3.4627,-3.4651,-3.4645,-3.4544,-3.4529,-3.4515,-3.4503,-3.4653,-3.4653,-3.4752,-3.4752,-3.4753]}]]